Regional Weather Roundup
Issued by NWS

Home | Current Version | Previous Version | Graphics & Text | Print | Product List | Glossary On
Versions: 1 2 3 4 5 6 7 8 9 10 11 12 13 14 15 16 17 18 19 20 21 22 23 24 25 26 27 28 29 30 31 32 33 34 35 36 37 38 39 40 41 42 43 44 45 46 47 48 49 50
111
ASUS43 KLOT 262203
RWRIL

ILLINOIS REGIONAL WEATHER ROUNDUP
NATIONAL WEATHER SERVICE CHICAGO/ROMEOVILLE IL
500 PM CDT THU APR 26 2018

NOTE: "FAIR" INDICATES FEW OR NO CLOUDS BELOW 12,000 FEET WITH NO
SIGNIFICANT WEATHER AND/OR OBSTRUCTIONS TO VISIBILITY.

* THESE STATIONS ARE NOT UNDER NWS QUALITY CONTROL. THEY ALSO MAY NOT
  REPORT WEATHER SUCH AS PRECIPITATION OR FOG.

ILZ001-002-007-009-015-016-024-262300-
NORTHWEST ILLINOIS

CITY           SKY/WX    TMP DP  RH WIND       PRES   REMARKS
MOLINE         FAIR      71  28  20 W13       29.84F
STERLING*      FAIR      69  32  25 W9        29.85F
SAVANNA*       FAIR      70  29  21 W8        29.84S
$$

ILZ003-004-008-010-011-017-018-262300-
NORTH CENTRAL ILLINOIS

CITY           SKY/WX    TMP DP  RH WIND       PRES   REMARKS
ROCKFORD       CLOUDY    67  29  24 W8        29.85F
FREEPORT*      FAIR      67  28  23 W8        29.86S
ROCHELLE*      FAIR      66  32  28 SW13      29.86S
DE KALB*       FAIR      66  30  26 SW7       29.86F
PERU*          FAIR      69  31  24 CALM      29.86F
$$

ILZ005-006-012>014-019>023-262300-
NORTHEAST ILLINOIS

CITY           SKY/WX    TMP DP  RH WIND       PRES   REMARKS
CHICAGO-OHARE  CLOUDY    65  28  24 SW7       29.85F
CHICAGO-MIDWAY CLOUDY    65  28  24 CALM      29.86F
AURORA         FAIR      65  31  28 W7        29.85F
LANSING*       FAIR      64  36  35 E3        29.87F
JOLIET*        FAIR      66  29  24 W6        29.86F
WAUKEGAN       FAIR      54  26  34 SE9       29.85F
DUPAGE AIRPORT FAIR      65  31  28 SW6       29.85F
KANKAKEE*      FAIR      66  30  26 N5        29.88S
WHEELING       FAIR      66  29  24 SW7       29.86F
MORRIS*        FAIR      66  30  25 W10       29.85F HAZE
ROMEOVILLE*    FAIR      64  31  28 W7        29.86F
NORTHERLY ISL    N/A     50  32  50 S1          N/A
$$

LMZ740>746-262300-
SOUTHERN LAKE MICHIGAN

STATION/POSITION SKY/WX   TEMP    WIND        PRES    VSBY  WAVE
                          AIR SEA DIR/SP/G                  HT/PER
                          (F)     (DEG/KT/KT) (MB)    (MI)  (FT/S)
HARRISON CRIB              53     120/ 14/ 15   N/A
BURNHAM HARBOR             49     100/  4/  5   N/A
CALUMET HARBOR             52      90/  8/ 12 1011.4F
BURNS HARBOR               49      80/  8/  8 1012.9F
MICHIGAN CITY              44      50/  7/  7   N/A
ST. JOSEPH                 44 44  120/  2/  4 1013.2F         1/ 5
$$

ILZ025>027-034>036-040-047-049-050-058-095>099-262300-
WEST-CENTRAL ILLINOIS

CITY           SKY/WX    TMP DP  RH WIND       PRES   REMARKS
QUINCY         SUNNY     69  31  24 NW9G20    29.88F
MACOMB*        CLOUDY    69  29  22 NW3G10    29.89F
JACKSONVILLE*  CLOUDY    69  30  24 NW12G17   29.88S
PITTSFIELD*    MOSUNNY   70  33  25 NW6       29.90S
$$

ILZ028>032-037-038-041>044-048-051>054-059>061-262300-
CENTRAL ILLINOIS

CITY           SKY/WX    TMP DP  RH WIND       PRES   REMARKS
PONTIAC        FAIR      67  29  24 NW5       29.87F
BLOOMINGTON    FAIR      66  33  29 NW9       29.89F
DECATUR        FAIR      68  33  27 NW8       29.88S
PEORIA         FAIR      68  35  29 SW6       29.87F
LACON*         FAIR      67  32  27 W5        29.85F
LINCOLN*       FAIR      69  33  26 NW8       29.88F
SPRINGFIELD    FAIR      72  30  21 NW12      29.88F
TAYLORVILLE    FAIR      68  30  24 W6        29.88S
$$

ILZ033-039-045-046-055>057-062-063-262300-
EAST-CENTRAL ILLINOIS

CITY           SKY/WX    TMP DP  RH WIND       PRES   REMARKS
CHAMPAIGN      FAIR      68  31  25 NW12      29.88S
DANVILLE*      FAIR      65  31  27 N7        29.85S
RANTOUL*       FAIR      67  31  26 N5        29.88S
MATTOON        FAIR      66  32  28 NW9       29.86F
PARIS*         FAIR      66  30  25 N7        29.87S
$$

ILZ079-100>102-262300-
SOUTHWEST ILLINOIS

CITY           SKY/WX    TMP DP  RH WIND       PRES   REMARKS
ALTON          MOSUNNY   72  41  33 NW9       29.88F
BELLEVILLE     SUNNY     69  39  33 W10       29.87F
CAHOKIA*       MOSUNNY   70  39  32 W12       29.88S
SPARTA*        SUNNY     65  46  50 CALM      29.91F
$$

ILZ064>066-069>071-074>076-080>082-084>086-088>090-092>094-262300-
SOUTH-CENTRAL ILLINOIS

CITY           SKY/WX    TMP DP  RH WIND       PRES   REMARKS
CARBONDALE     FAIR      66  45  46 NW10      29.89S
CAIRO*         FAIR      66  45  46 N9        29.89R
EFFINGHAM*     FAIR      67  38  34 W7        29.90R
MARION         MOSUNNY   66  41  39 NW12      29.89F
MT. VERNON     FAIR      68  36  30 VRB3      29.88F
CENTRALIA*     SUNNY     68  39  35 NW12      29.88F
SALEM*         FAIR      68  33  27 NW9       29.89R
METROPOLIS*    FAIR      66  45  45 NW6       29.88F
$$

ILZ067-068-072-073-078-083-087-091-262300-
SOUTHEAST ILLINOIS

CITY           SKY/WX    TMP DP  RH WIND       PRES   REMARKS
LAWRENCEVILLE  FAIR      69  26  20 MISG      29.87S
FLORA*         FAIR      68  37  32 N7        29.88F
FAIRFIELD*     FAIR      66  39  36 NW8       29.87S
HARRISBURG*    FAIR      67  44  43 N5        29.88F
ROBINSON*      FAIR      66  33  29 NW7       29.88S
CARMI*         FAIR      66  42  40 NW8       29.87S
$$

ABBREVIATIONS USED IN REMARKS
   TC - TEMPERATURE IN CELSIUS
  WCI - WIND CHILL INDEX
   HX - HEAT INDEX
  VSB - VISIBILITY
$$





USA.gov is the U.S. government's official web portal to all federal, state and local government web resources and services.